Miscellaneous Local Product
Issued by NWS North Platte, NE

Home | Current Version | Previous Version | Graphics & Text | Print | Product List | Glossary On
Versions: 1 2 3 4 5 6 7 8 9 10 11 12 13 14 15 16 17 18 19 20 21 22 23 24 25 26 27 28 29 30 31 32 33 34 35 36 37 38 39 40 41 42 43 44 45 46 47 48 49 50
000
AXUS43 KLBF 261310
MISLBF


WESTERN AND NORTH CENTRAL NEBRASKA HOURLY WEATHER ROUNDUP
NATIONAL WEATHER SERVICE NORTH PLATTE NE
800 AM CDT SUN APR 26 2015

***STATIONS NOT REPORTING VARIABLES SUCH AS SKY/WEATHER OR
PRESSURE ARE PROVIDED BY THE NEBRASKA DEPARTMENT OF
ROADS...RAWS...AND APRS NETWORKS...AND ARE NOT UNDER
NATIONAL WEATHER SERVICE QUALITY CONTROL***

...OBSERVATIONS IN AND NEAR THE EASTERN PANHANDLE OF NEBRASKA...

CITY           SKY/WX    TMP DP  RH WIND       PRES   REMARKS
PINE RIDGE     CLOUDY    47  43  86 SE13      29.91R
CHADRON        CLOUDY    47  47 100 NE10      29.89R FOG
ALLIANCE       LGT RAIN  46  45  96 SE13      29.88R FOG
SIDNEY         FOG       44  43  96 E16       29.87R VSB<1/4
WHITECLAY        N/A     44  42  91 SE10        N/A
CRESCENT LAKE    N/A     43  43  99 E10         N/A
BIG SPRINGS      N/A     46  45  96 E12         N/A
$$

...OBSERVATIONS IN NORTH CENTRAL NEBRASKA...

CITY           SKY/WX    TMP DP  RH WIND       PRES   REMARKS
VALENTINE      CLOUDY    45  40  82 SE9       29.98R
THEDFORD       CLOUDY    44  43  96 E10       29.96R FOG
AINSWORTH      CLOUDY    44  40  87 SE10      29.99R
O`NEILL        CLOUDY    47  40  78 SE6       30.01R
ORD            CLOUDY    45  39  79 E6        29.99R
BROKEN BOW     CLOUDY    46  40  79 E10       29.96R
BROWNLEE         N/A     45  44  95 E8          N/A
VALENTINE NWR    N/A     42  41  97 SE9         N/A
SPRINGVIEW       N/A     46  41  84 CALM        N/A
HALSEY           N/A     42  41  97 E6          N/A
BREWSTER         N/A     42  41  96 E9          N/A
ROSE             N/A     41  41  99 E7          N/A
NEWPORT          N/A     45  40  83 SE10        N/A
SARGENT          N/A     44  41  90 CALM        N/A
COMSTOCK         N/A     46  42  86 E9          N/A
EWING            N/A     47  40  76 E6          N/A
$$

...OBSERVATIONS IN SOUTHWEST NEBRASKA AND FAR NORTHEAST COLORADO...

CITY           SKY/WX    TMP DP  RH WIND       PRES   REMARKS
WRAY           CLOUDY   N/A N/A N/A E12       29.89R FOG
HOLYOKE        CLOUDY    45  43  93 E14       29.89S FOG
IMPERIAL       CLOUDY    43  41  93 E13       29.90R FOG
OGALLALA       FOG       43  43  98 E13       29.91R VSB 1/2
MCCOOK         CLOUDY    45  43  93 E15G26    29.91R FOG
LEXINGTON      CLOUDY    45  43  93 E14       29.96R FOG
PAXTON           N/A     44  42  94 E12         N/A
SUTHERLAND       N/A     39  37  94 E10         N/A  WCI  32
BRADY            N/A     43  41  92 N5G12       N/A
GOTHENBURG       N/A     44  42  92 E10         N/A
CALLAWAY         N/A     43  42  96 E10         N/A
$$

...NORTH PLATTE AREA...

CITY           SKY/WX    TMP DP  RH WIND       PRES   REMARKS
$$

...SOME WEATHER OBSERVATIONS FROM AROUND THE REGION...

CITY           SKY/WX    TMP DP  RH WIND       PRES   REMARKS
DENVER         LGT RAIN  41  40  96 E17       29.82R
LARAMIE        CLOUDY    35  34  96 CALM      29.82S
CHEYENNE       CLOUDY    42  40  92 SE10G22   29.83R
SCOTTSBLUFF    LGT RAIN  47  47 100 MISG      29.85R
RAPID CITY     CLOUDY    43  41  93 N16       29.93R
PIERRE         CLOUDY    48  42  80 SE10      29.99R
WINNER         PTSUNNY   48  42  80 SE6       30.00R
SIOUX FALLS    MOSUNNY   41  38  89 NE3       30.05R
OMAHA          MOSUNNY   44  41  89 NW5       30.01R
GRAND ISLAND   CLOUDY    45  39  79 E12       29.99R
KANSAS CITY    CLOUDY    47  43  86 E15       29.94R
WICHITA        CLOUDY    51  46  83 NE16      29.85R
HAYS           CLOUDY    46  39  76 E17G25    29.88S
LIBERAL        CLOUDY    52  46  82 E16       29.79R
GOODLAND       FOG       43  43 100 E15       29.87R VSB 3/4
$$



USA.gov is the U.S. government's official web portal to all federal, state and local government web resources and services.